STARLINK-32597 (62304 NORAD) Tracking and Keplerian Element Data

This shows tracking and keplerian element data for the satellite.

Feedback or suggestion? Click here.




ElementValue
Catalog62304
NameSTARLINK-32597
Epoch Orbit828
Epoch Day35.02661033
Epoch Year2025
RAAN250.1633
Inclination53.1559
Eccentricity8.77E-05
Argument of Perigee105.3563
Mean Anonmoly254.7539
Mean Motion15.39624519
Decay Rate1.724E-05
L11 62304U 24239D 25035.02661033 .00001724 00000+0 53063-4 0 9995
L22 62304 53.1559 250.1633 0000877 105.3563 254.7539 15.39624519 8288



Live tracking and technical data element details for STARLINK-32597 (NORAD 62304). STARLINK-32597 can be tracked NOW for your location showing map with azimuth and elevation plus other details from your city location.







IsCatalogInMostPopularTable: catalog: 62304, numindb: 27
Update: records affected: 1



GetName: 62304 STARLINK-32597

Hit Count: updated at: Sun, 18 May 2025 23:31:21 GMT